| time (UTC) | temp C | wind direction | speed KPH | gust KPH | rain 1hr cm | rain 24hr cm | rain mn cm | humidity % | barometer mb |
| 20260507234540 | 11 | 53 | 1.6 | 4.8 | 0.00 | 0.00 | 0.00 | 88 | 1014.3 |
| 20260507233043 | 11 | 51 | 1.6 | 4.8 | 0.00 | 0.00 | 0.00 | 87 | 1014.4 |
| 20260507231537 | 11 | 50 | 1.6 | 4.8 | 0.00 | 0.00 | 0.00 | 87 | 1014.5 |
| 20260507230034 | 12 | 47 | 4.8 | 6.4 | 0.00 | 0.00 | 0.00 | 86 | 1014.5 |
| 20260507224542 | 12 | 39 | 4.8 | 8.0 | 0.00 | 0.00 | 0.00 | 85 | 1014.4 |
| 20260507223035 | 12 | 57 | 0.0 | 4.8 | 0.00 | 0.00 | 0.00 | 86 | 1014.3 |
| 20260507221536 | 12 | 55 | 1.6 | 4.8 | 0.00 | 0.00 | 0.00 | 84 | 1014.1 |
| 20260507220028 | 12 | 57 | 1.6 | 4.8 | 0.00 | 0.00 | 0.00 | 84 | 1014.1 |
| 20260507214527 | 12 | 57 | 1.6 | 4.8 | 0.00 | 0.00 | 0.00 | 83 | 1014.1 |
| 20260507213026 | 12 | 56 | 3.2 | 4.8 | 0.00 | 0.00 | 0.00 | 83 | 1013.9 |
| 20260507211525 | 12 | 55 | 1.6 | 4.8 | 0.00 | 0.00 | 0.00 | 82 | 1013.8 |
| 20260507210022 | 12 | 53 | 3.2 | 6.4 | 0.00 | 0.00 | 0.00 | 83 | 1013.9 |
| 20260507204520 | 12 | 49 | 0.0 | 4.8 | 0.00 | 0.00 | 0.00 | 82 | 1013.8 |
| 20260507203025 | 12 | 50 | 4.8 | 8.0 | 0.00 | 0.00 | 0.00 | 82 | 1013.7 |
| 20260507201515 | 12 | 57 | 0.0 | 3.2 | 0.00 | 0.00 | 0.00 | 81 | 1013.5 |
| 20260507200014 | 12 | 55 | 4.8 | 6.4 | 0.00 | 0.00 | 0.00 | 81 | 1013.3 |
| 20260507194515 | 12 | 51 | 3.2 | 6.4 | 0.00 | 0.00 | 0.00 | 80 | 1013.2 |
| 20260507193012 | 12 | 41 | 1.6 | 6.4 | 0.00 | 0.00 | 0.00 | 81 | 1012.9 |
| 20260507191510 | 13 | 55 | 1.6 | 6.4 | 0.00 | 0.00 | 0.00 | 79 | 1012.7 |
| 20260507190008 | 13 | 52 | 1.6 | 6.4 | 0.00 | 0.00 | 0.00 | 79 | 1012.6 |
| 20260507184508 | 13 | 57 | 4.8 | 8.0 | 0.00 | 0.00 | 0.00 | 79 | 1012.5 |
| 20260507183011 | 13 | 45 | 3.2 | 8.0 | 0.00 | 0.00 | 0.00 | 77 | 1012.3 |
| 20260507181537 | 13 | 71 | 0.0 | 3.2 | 0.00 | 0.00 | 0.00 | 78 | 1012.3 |
| 20260507180039 | 13 | 70 | 1.6 | 4.8 | 0.00 | 0.00 | 0.00 | 77 | 1012.1 |
| 20260507174537 | 14 | 61 | 3.2 | 6.4 | 0.00 | 0.00 | 0.00 | 76 | 1012.0 |
| 20260507173036 | 15 | 87 | 3.2 | 4.8 | 0.00 | 0.00 | 0.00 | 73 | 1012.0 |
| 20260507171535 | 15 | 88 | 0.0 | 6.4 | 0.00 | 0.00 | 0.00 | 70 | 1011.8 |
| 20260507170036 | 16 | 112 | 3.2 | 4.8 | 0.00 | 0.00 | 0.00 | 66 | 1011.8 |
| 20260507164501 | 16 | 161 | 0.0 | 8.0 | 0.00 | 0.00 | 0.00 | 55 | 1011.8 |
| 20260507163000 | 16 | 80 | 3.2 | 8.0 | 0.00 | 0.00 | 0.00 | 57 | 1011.7 |
| 20260507161530 | 16 | 163 | 3.2 | 8.0 | 0.00 | 0.00 | 0.00 | 57 | 1011.6 |
| 20260507160030 | 17 | 207 | 4.8 | 9.7 | 0.00 | 0.00 | 0.00 | 59 | 1011.6 |
| 20260507154526 | 16 | 147 | 3.2 | 9.7 | 0.00 | 0.00 | 0.00 | 61 | 1011.5 |
| 20260507153026 | 16 | 175 | 3.2 | 14.5 | 0.00 | 0.00 | 0.00 | 61 | 1011.5 |
| 20260507151525 | 17 | 151 | 4.8 | 16.1 | 0.00 | 0.00 | 0.00 | 60 | 1011.5 |
| 20260507150027 | 17 | 271 | 6.4 | 11.3 | 0.00 | 0.00 | 0.00 | 60 | 1011.4 |
| 20260507144528 | 18 | 149 | 6.4 | 14.5 | 0.00 | 0.00 | 0.00 | 56 | 1011.6 |
| 20260507143025 | 18 | 219 | 9.7 | 19.3 | 0.00 | 0.00 | 0.00 | 58 | 1011.7 |
| 20260507141518 | 18 | 246 | 9.7 | 19.3 | 0.00 | 0.00 | 0.00 | 60 | 1011.7 |
| 20260507140018 | 17 | 222 | 4.8 | 17.7 | 0.00 | 0.00 | 0.00 | 62 | 1012.0 |
| 20260507134513 | 17 | 248 | 4.8 | 12.9 | 0.00 | 0.00 | 0.00 | 64 | 1012.0 |
| 20260507133015 | 17 | 131 | 4.8 | 14.5 | 0.00 | 0.00 | 0.00 | 64 | 1012.1 |
| 20260507131512 | 17 | 119 | 8.0 | 20.9 | 0.00 | 0.00 | 0.00 | 63 | 1012.2 |
| 20260507130011 | 17 | 84 | 9.7 | 14.5 | 0.00 | 0.00 | 0.00 | 65 | 1012.2 |
| 20260507124507 | 17 | 104 | 0.0 | 12.9 | 0.00 | 0.00 | 0.00 | 66 | 1012.3 |
| 20260507123007 | 16 | 97 | 3.2 | 14.5 | 0.00 | 0.00 | 0.00 | 66 | 1012.5 |
| 20260507121502 | 16 | 257 | 3.2 | 12.9 | 0.00 | 0.00 | 0.00 | 69 | 1012.4 |
| 20260507120001 | 15 | 168 | 3.2 | 12.9 | 0.00 | 0.00 | 0.00 | 70 | 1012.5 |
| 20260507114526 | 15 | 232 | 4.8 | 12.9 | 0.00 | 0.00 | 0.00 | 70 | 1012.6 |
| 20260507113026 | 15 | 142 | 3.2 | 8.0 | 0.00 | 0.00 | 0.00 | 71 | 1012.9 |
| 20260507111525 | 15 | 134 | 3.2 | 8.0 | 0.00 | 0.00 | 0.00 | 71 | 1012.9 |
| 20260507104519 | 15 | 96 | 4.8 | 14.5 | 0.00 | 0.00 | 0.00 | 67 | 1013.0 |
| 20260507103018 | 15 | 169 | 3.2 | 11.3 | 0.00 | 0.00 | 0.00 | 71 | 1013.1 |
| 20260507101517 | 16 | 165 | 3.2 | 14.5 | 0.00 | 0.00 | 0.00 | 68 | 1013.1 |
| 20260507100051 | 16 | 155 | 4.8 | 16.1 | 0.00 | 0.03 | 0.00 | 68 | 1013.1 |
| 20260507094538 | 16 | 167 | 4.8 | 12.9 | 0.00 | 0.03 | 0.00 | 72 | 1012.9 |
| 20260507093006 | 15 | 107 | 6.4 | 19.3 | 0.00 | 0.03 | 0.00 | 72 | 1012.8 |
| 20260507091501 | 15 | 98 | 4.8 | 14.5 | 0.00 | 0.03 | 0.00 | 72 | 1012.8 |
| 20260507090059 | 15 | 180 | 4.8 | 14.5 | 0.00 | 0.03 | 0.00 | 74 | 1012.8 |
| 20260507084521 | 13 | 197 | 4.8 | 8.0 | 0.00 | 0.03 | 0.00 | 75 | 1012.7 |
| 20260507083054 | 13 | 184 | 1.6 | 8.0 | 0.00 | 0.03 | 0.00 | 79 | 1012.7 |
| 20260507081551 | 12 | 110 | 1.6 | 4.8 | 0.00 | 0.03 | 0.00 | 82 | 1012.9 |
| 20260507080100 | 11 | 109 | 0.0 | 4.8 | 0.00 | 0.03 | 0.00 | 82 | 1012.9 |
| 20260507074531 | 10 | 113 | 1.6 | 6.4 | 0.00 | 0.03 | 0.00 | 79 | 1012.9 |
| 20260507073028 | 10 | 128 | 1.6 | 4.8 | 0.00 | 0.03 | 0.00 | 81 | 1013.0 |
| 20260507071523 | 10 | 123 | 0.0 | 4.8 | 0.00 | 0.03 | 0.00 | 83 | 1012.9 |
| 20260507070058 | 8 | 110 | 1.6 | 4.8 | 0.00 | 0.03 | 0.00 | 88 | 1012.9 |
| 20260507064511 | 8 | 59 | 0.0 | 4.8 | 0.00 | 0.05 | 0.00 | 91 | 1012.9 |
| 20260507063007 | 7 | 58 | 0.0 | 4.8 | 0.00 | 0.05 | 0.00 | 91 | 1012.9 |
| 20260507061505 | 7 | 58 | 0.0 | 4.8 | 0.00 | 0.05 | 0.00 | 92 | 1012.8 |
| 20260507060100 | 7 | 58 | 1.6 | 4.8 | 0.00 | 0.05 | 0.00 | 92 | 1012.7 |
| 20260507054534 | 6 | 163 | 0.0 | 1.6 | 0.00 | 0.15 | 0.00 | 92 | 1012.6 |
| 20260507053059 | 6 | 280 | 1.6 | 3.2 | 0.00 | 0.15 | 0.00 | 92 | 1012.6 |
| 20260507051555 | 6 | 355 | 0.0 | 4.8 | 0.00 | 0.15 | 0.00 | 92 | 1012.3 |
| 20260507050050 | 6 | 59 | 0.0 | 1.6 | 0.00 | 0.51 | 0.00 | 92 | 1012.2 |
| 20260507044512 | 6 | 59 | 0.0 | 3.2 | 0.00 | 0.51 | 0.00 | 92 | 1012.1 |
| 20260507043008 | 6 | 57 | 1.6 | 4.8 | 0.00 | 0.51 | 0.00 | 92 | 1011.9 |
| 20260507041601 | 6 | 57 | 1.6 | 4.8 | 0.00 | 0.51 | 0.00 | 92 | 1011.7 |
| 20260507034600 | 6 | 56 | 0.0 | 6.4 | 0.00 | 0.69 | 0.00 | 92 | 1011.6 |
| 20260507033053 | 6 | 50 | 3.2 | 8.0 | 0.00 | 0.69 | 0.00 | 92 | 1011.4 |
| 20260507031548 | 6 | 60 | 0.0 | 6.4 | 0.00 | 0.69 | 0.00 | 92 | 1011.4 |
| 20260507030047 | 6 | 61 | 1.6 | 4.8 | 0.00 | 0.69 | 0.00 | 92 | 1011.3 |
| 20260507024518 | 6 | 45 | 0.0 | 3.2 | 0.00 | 0.69 | 0.00 | 92 | 1011.3 |
| 20260507023016 | 6 | 46 | 3.2 | 8.0 | 0.00 | 0.69 | 0.00 | 92 | 1011.4 |
| 20260507021516 | 6 | 24 | 0.0 | 1.6 | 0.00 | 0.69 | 0.00 | 92 | 1011.5 |
| 20260507020108 | 6 | 24 | 0.0 | 4.8 | 0.00 | 0.69 | 0.00 | 92 | 1011.5 |
| 20260507014541 | 6 | 44 | 0.0 | 0.0 | 0.00 | 0.69 | 0.00 | 92 | 1011.3 |
| 20260507013043 | 6 | 45 | 0.0 | 4.8 | 0.00 | 0.69 | 0.00 | 91 | 1011.2 |
| 20260507011532 | 6 | 30 | 0.0 | 6.4 | 0.00 | 0.69 | 0.00 | 91 | 1011.1 |
| 20260507010034 | 7 | 62 | 1.6 | 4.8 | 0.00 | 0.71 | 0.00 | 91 | 1011.2 |
| 20260507004528 | 7 | 61 | 0.0 | 1.6 | 0.00 | 0.71 | 0.00 | 91 | 1011.0 |
| 20260507003031 | 7 | 61 | 0.0 | 3.2 | 0.00 | 0.71 | 0.00 | 91 | 1010.9 |
| 20260507001522 | 7 | 58 | 0.0 | 4.8 | 0.00 | 0.71 | 0.00 | 91 | 1010.7 |
| 20260507000022 | 7 | 63 | 0.0 | 3.2 | 0.00 | 0.71 | 0.00 | 91 | 1010.6 |